TimeCST,TemperatureF,Dew PointF,Humidity,Sea Level PressureIn,VisibilityMPH,Wind Direction,Wind SpeedMPH,Gust SpeedMPH,PrecipitationIn,Events,Conditions,WindDirDegrees,DateUTC
12:52 AM,46.9,37.9,71,30.26,10.0,NNE,18.4,-,N/A,,Overcast,30,2013-11-25 06:52:00
1:50 AM,46.4,37.4,71,30.25,10.0,NNE,17.3,-,N/A,,Overcast,20,2013-11-25 07:50:00
1:52 AM,46.9,37.9,71,30.25,10.0,NNE,18.4,-,N/A,,Overcast,20,2013-11-25 07:52:00
2:52 AM,46.9,37.9,71,30.22,10.0,NNE,15.0,23.0,N/A,,Overcast,20,2013-11-25 08:52:00
3:34 AM,46.4,37.4,71,30.20,10.0,NNE,19.6,-,N/A,,Overcast,20,2013-11-25 09:34:00
3:52 AM,46.9,37.9,71,30.19,10.0,NNE,20.7,25.3,N/A,,Overcast,20,2013-11-25 09:52:00
4:08 AM,46.4,37.4,71,30.19,10.0,NNE,20.7,27.6,N/A,,Overcast,20,2013-11-25 10:08:00
4:27 AM,46.4,37.4,71,30.19,10.0,NNE,16.1,25.3,N/A,,Overcast,20,2013-11-25 10:27:00
4:52 AM,46.0,37.9,73,30.16,10.0,NNE,19.6,27.6,N/A,,Overcast,30,2013-11-25 10:52:00
5:24 AM,46.4,37.4,71,30.17,10.0,NNE,17.3,24.2,N/A,,Overcast,30,2013-11-25 11:24:00
5:52 AM,46.0,37.0,71,30.16,10.0,NNE,17.3,-,N/A,,Overcast,30,2013-11-25 11:52:00
6:52 AM,45.0,36.0,71,30.17,10.0,NNE,19.6,-,N/A,,Overcast,20,2013-11-25 12:52:00
7:52 AM,43.0,37.9,82,30.16,5.0,North,19.6,24.2,0.04,Rain,Heavy Rain,10,2013-11-25 13:52:00
8:24 AM,42.8,39.2,87,30.16,1.8,NNE,18.4,24.2,0.22,Rain,Heavy Rain,20,2013-11-25 14:24:00
8:39 AM,42.8,39.2,87,30.18,2.5,NNE,15.0,24.2,0.32,Rain,Heavy Rain,20,2013-11-25 14:39:00
8:52 AM,42.1,39.9,92,30.17,1.8,North,17.3,25.3,0.46,Rain,Heavy Rain,10,2013-11-25 14:52:00
8:59 AM,42.8,41.0,93,30.16,3.0,NNE,21.9,-,0.02,Rain,Rain,20,2013-11-25 14:59:00
9:07 AM,42.8,41.0,93,30.16,4.0,North,23.0,27.6,0.04,Rain,Rain,10,2013-11-25 15:07:00
9:52 AM,43.0,41.0,93,30.17,10.0,North,19.6,27.6,0.12,,Overcast,10,2013-11-25 15:52:00
10:32 AM,42.8,41.0,93,30.16,10.0,North,19.6,-,0.02,,Overcast,10,2013-11-25 16:32:00
10:52 AM,43.0,41.0,93,30.16,10.0,North,19.6,-,0.02,,Overcast,10,2013-11-25 16:52:00
11:52 AM,43.0,43.0,100,30.12,10.0,NNE,15.0,-,0.01,,Overcast,20,2013-11-25 17:52:00
12:52 PM,45.0,44.1,97,30.08,10.0,North,18.4,-,N/A,,Overcast,360,2013-11-25 18:52:00
1:52 PM,45.0,44.1,97,30.04,5.0,North,21.9,26.5,N/A,,Overcast,10,2013-11-25 19:52:00
2:52 PM,45.0,45.0,100,30.01,10.0,North,21.9,-,0.00,,Overcast,10,2013-11-25 20:52:00
3:52 PM,45.0,45.0,100,29.99,10.0,North,15.0,24.2,N/A,,Overcast,10,2013-11-25 21:52:00
4:52 PM,46.0,45.0,96,30.01,6.0,North,23.0,28.8,0.01,Rain,Light Rain,350,2013-11-25 22:52:00
5:45 PM,44.6,44.6,100,30.03,8.0,NNW,23.0,28.8,0.03,Rain,Light Rain,340,2013-11-25 23:45:00
5:52 PM,45.0,44.1,97,30.03,8.0,NNW,21.9,28.8,0.03,Rain,Light Rain,340,2013-11-25 23:52:00
5:59 PM,46.4,44.6,93,30.03,5.0,NNW,20.7,27.6,0.01,,Overcast,340,2013-11-25 23:59:00
6:08 PM,44.6,44.6,100,30.04,4.0,North,20.7,-,0.02,,Overcast,350,2013-11-26 00:08:00
6:16 PM,44.6,44.6,100,30.01,5.0,North,21.9,26.5,0.02,,Overcast,360,2013-11-26 00:16:00
6:34 PM,44.6,44.6,100,30.01,4.0,North,19.6,25.3,0.11,Rain,Heavy Rain,360,2013-11-26 00:34:00
6:43 PM,44.6,44.6,100,30.02,4.0,North,19.6,-,0.15,Rain,Rain,10,2013-11-26 00:43:00
6:52 PM,45.0,45.0,100,30.03,10.0,North,18.4,-,0.15,Rain,Light Rain,10,2013-11-26 00:52:00
7:52 PM,46.0,46.0,100,30.02,10.0,North,20.7,27.6,0.08,,Overcast,360,2013-11-26 01:52:00
8:52 PM,44.1,44.1,100,30.03,6.0,North,25.3,-,0.24,Rain,Heavy Rain,350,2013-11-26 02:52:00
9:04 PM,44.6,44.6,100,30.02,10.0,North,23.0,31.1,0.01,Rain,Light Rain,350,2013-11-26 03:04:00
9:52 PM,45.0,44.1,97,30.02,10.0,North,23.0,-,0.01,Rain,Light Rain,350,2013-11-26 03:52:00
10:23 PM,44.6,44.6,100,30.00,10.0,North,28.8,34.5,0.00,,Overcast,350,2013-11-26 04:23:00
10:52 PM,45.0,44.1,97,29.96,10.0,North,28.8,38.0,0.00,,Overcast,360,2013-11-26 04:52:00
11:19 PM,44.6,44.6,100,29.99,10.0,North,26.5,32.2,N/A,,Overcast,350,2013-11-26 05:19:00
11:52 PM,45.0,44.1,97,29.98,10.0,North,21.9,28.8,N/A,,Overcast,350,2013-11-26 05:52:00